EHI
11 16 19 16 14 15 17 20 21 21 18 13 7 4 4 4 5 6 4 2 1 0 0 0 0 0 0 0 0 0 0 0 0 0 0 0 0 0 0 0 0 0 0
12 16 21 20 17 16 17 19 21 21 19 14 8 4 4 5 6 5 4 2 1 0 0 0 0 0 0 0 0 0 0 0 0 0 0 0 0 0 0 0 0 0 0
13 17 22 24 20 17 17 18 20 21 19 15 10 5 4 6 6 4 3 2 1 0 0 0 0 0 0 0 0 0 0 0 0 0 0 0 0 0 0 0 0 0 0
12 15 21 25 23 19 18 17 18 20 19 16 12 7 5 6 5 4 3 2 1 1 1 0 0 0 0 0 0 0 0 0 0 0 0 0 0 0 0 0 0 0 0
12 15 19 24 24 21 19 17 17 19 19 16 12 10 8 6 5 3 2 2 3 2 1 0 0 0 0 0 0 0 0 0 0 0 0 0 0 0 0 0 0 0 0
13 14 19 22 23 22 20 18 18 19 18 14 13 13 11 8 5 5 4 3 4 3 1 0 0 0 0 0 0 0 0 0 0 0 0 0 0 0 0 0 0 0 0
13 15 17 18 19 20 20 18 17 17 15 13 13 15 14 10 7 6 5 4 3 2 0 0 0 0 0 0 0 0 0 0 0 0 0 0 0 0 0 0 0 0 0
12 13 14 12 13 16 18 17 17 15 13 13 13 15 15 12 8 6 4 2 2 2 1 0 0 0 0 0 0 0 0 0 0 0 0 0 0 0 0 0 0 0 0
12 12 11 9 10 12 14 15 15 15 13 12 13 15 14 12 8 4 2 1 1 1 1 0 0 0 0 0 0 0 0 0 0 0 0 0 0 0 0 0 0 0 0
13 13 11 9 10 10 10 11 12 13 12 11 12 12 11 9 7 4 2 1 0 0 0 0 0 1 1 0 0 0 0 0 0 0 0 0 0 0 0 0 0 0 0
14 14 13 12 12 10 9 8 10 11 10 10 10 9 7 6 5 3 1 1 1 1 0 0 1 2 1 0 0 0 0 0 0 0 0 0 0 0 0 0 0 0 0
12 14 15 14 13 11 10 10 11 10 9 10 9 6 6 6 5 3 2 2 2 2 1 0 1 2 1 0 0 0 0 0 0 0 0 0 0 0 0 0 0 0 0
9 12 14 13 12 10 10 12 13 12 11 11 9 7 7 8 7 5 3 3 3 3 1 1 2 1 0 0 0 0 0 0 0 0 0 0 0 0 0 0 0 0 0
7 9 11 10 9 9 10 11 13 13 13 12 11 8 7 7 6 5 4 3 3 3 2 2 2 1 0 0 0 0 0 0 0 0 0 0 0 0 0 0 0 0 0
6 7 8 7 7 9 9 9 9 11 12 12 11 8 6 5 4 4 4 3 2 3 3 1 1 0 0 0 0 0 0 0 0 0 0 0 0 0 0 0 0 0 0
6 5 5 5 5 7 8 7 7 8 10 10 10 8 5 4 3 2 3 4 3 3 2 1 0 0 0 0 0 0 0 0 0 0 0 0 0 0 0 0 0 0 0
5 4 3 3 3 5 6 7 6 7 7 8 9 7 5 4 3 2 4 6 5 3 2 0 0 0 0 0 0 0 0 0 0 0 0 0 0 0 0 0 0 0 0
3 3 2 3 3 3 5 6 6 6 6 6 7 6 5 3 3 3 5 6 5 4 2 1 0 0 0 0 0 0 0 0 0 0 0 0 0 0 0 0 0 0 0
2 2 2 2 2 2 3 4 4 4 4 4 4 5 5 3 2 3 4 4 3 3 3 1 0 0 0 0 0 0 0 0 0 0 0 0 0 0 0 0 0 0 0
3 3 2 2 1 1 1 2 2 2 3 3 3 3 3 2 1 2 3 1 1 1 2 2 1 0 0 0 0 0 0 0 0 0 0 0 0 0 0 0 0 0 0
3 3 2 1 0 0 0 0 1 1 1 2 2 1 1 1 1 1 1 0 0 0 1 2 2 1 0 0 0 0 0 0 0 0 0 0 0 0 0 0 0 0 0
3 2 1 0 0 0 0 1 1 1 1 1 1 0 0 0 0 0 0 0 0 0 0 1 2 1 0 0 0 0 0 0 0 0 0 0 0 0 0 0 0 0 0
2 1 0 0 0 0 0 1 1 1 0 0 0 0 0 0 0 0 0 0 0 0 0 0 1 1 0 0 0 0 0 0 0 0 0 0 0 0 0 0 0 0 0
1 0 0 0 0 0 0 0 0 0 0 0 0 0 0 0 0 0 0 0 0 0 0 0 0 0 0 0 0 0 0 0 0 0 0 0 0 0 0 0 0 0 0
1 0 0 0 0 0 0 0 0 0 0 0 0 0 0 0 0 0 0 0 0 0 0 0 0 0 0 0 0 0 0 0 0 0 0 0 0 0 0 0 0 0 0
1 1 0 0 0 0 0 0 0 0 0 0 0 0 0 0 0 0 0 0 0 0 0 0 0 0 0 0 0 0 0 0 0 0 0 0 0 0 0 0 0 0 0
Wind_Speed
4 5 6 5 6 7 8 9 10 10 10 10 10 11 10 10 10 10 10 10 10 9 9 10 10 10 10 10 10 10 10 10 10 9 9 9 9 9 8 7 6 7 9
3 5 7 5 7 8 8 9 10 10 10 10 10 10 10 10 10 10 10 10 9 9 9 9 9 10 10 10 10 10 10 10 9 8 7 7 8 8 8 8 8 7 8
4 5 7 6 7 8 8 9 9 10 10 10 10 10 10 10 10 9 9 9 9 9 9 9 9 10 10 10 9 9 9 9 9 6 3 5 7 8 8 8 8 8 8
5 5 6 7 6 8 8 9 9 10 10 9 10 10 10 10 9 9 9 8 8 8 8 8 9 9 9 9 9 9 9 8 7 3 3 5 5 8 8 8 8 8 7
5 5 6 6 7 8 9 9 9 9 9 9 9 9 9 9 9 9 9 8 8 8 8 8 8 9 9 9 9 8 8 8 5 3 5 5 5 7 7 7 7 7 7
5 5 6 6 7 7 8 8 9 9 9 9 9 9 9 9 9 9 8 8 8 8 8 8 8 8 8 8 8 8 8 5 2 5 5 5 5 7 6 6 6 6 6
4 4 6 7 7 7 7 8 8 8 9 9 9 9 9 9 9 8 8 8 8 7 7 8 8 8 8 7 7 7 7 4 3 4 4 5 6 6 6 6 5 5 6
5 5 6 7 7 7 8 7 7 8 8 9 9 9 8 8 9 8 8 8 7 7 7 7 7 7 7 7 7 7 6 2 3 4 4 5 6 5 5 5 5 5 5
5 5 5 6 6 7 7 7 7 7 8 8 8 8 8 8 8 8 7 7 7 7 6 7 7 7 6 6 6 6 5 3 2 3 3 4 5 5 5 5 5 5 5
5 4 4 5 5 5 6 6 7 7 7 7 7 7 7 7 7 7 7 6 6 6 6 6 6 6 6 6 6 5 3 1 2 3 2 4 6 5 5 5 5 5 5
4 4 3 4 4 4 5 6 6 6 6 6 6 6 5 5 6 6 6 6 6 6 6 6 6 6 5 6 6 4 1 1 2 2 3 5 5 5 5 6 6 6 6
3 3 2 3 3 3 3 3 3 3 4 3 3 4 3 3 3 4 6 5 5 5 6 5 5 5 3 3 4 2 1 1 1 2 3 5 5 5 5 5 6 6 6
3 3 2 2 3 3 2 2 2 2 2 3 3 3 3 3 3 3 3 4 4 4 3 4 4 2 2 2 1 1 1 1 1 1 4 5 5 5 5 6 6 6 6
3 2 2 2 2 2 2 2 2 2 2 2 2 2 2 2 2 2 2 2 2 2 2 2 1 2 2 2 2 1 1 1 1 1 4 5 5 6 6 6 6 6 7
2 2 2 1 2 2 2 1 2 2 2 2 2 2 2 2 2 2 1 1 2 1 2 1 2 2 2 2 2 1 1 1 1 1 2 5 5 6 6 7 7 7 7
1 2 1 1 2 2 2 2 1 2 2 2 2 2 2 2 2 2 2 2 1 1 1 1 2 2 1 1 2 2 1 1 1 1 1 2 4 5 6 6 7 7 8
1 1 1 1 2 2 2 2 1 2 2 2 2 2 2 2 2 2 2 1 1 1 1 1 2 1 1 1 2 1 1 0 0 1 1 1 1 3 5 6 7 7 8
1 1 1 1 1 2 2 2 2 1 2 2 2 2 2 2 2 1 1 1 1 1 1 1 1 1 1 1 1 1 1 0 1 1 1 1 1 2 3 6 7 7 8
1 2 2 2 2 2 2 2 2 2 2 2 2 2 2 2 2 2 1 1 1 1 1 1 1 1 1 1 1 1 0 0 0 0 1 1 2 3 3 3 5 6 8
1 2 2 2 2 2 2 2 2 3 2 2 2 2 2 2 2 1 2 2 1 1 1 1 2 1 1 1 1 1 0 0 0 0 1 1 2 3 3 3 3 3 5
2 2 3 3 2 2 2 1 1 1 1 2 2 2 2 2 2 2 2 2 1 1 1 1 1 2 1 1 1 1 1 1 0 0 0 1 2 3 3 4 3 3 3
1 1 2 2 2 2 1 1 1 1 1 1 1 1 2 1 1 1 2 2 2 1 1 1 1 1 1 1 1 1 1 2 1 1 1 1 2 2 3 3 4 4 4
1 1 1 1 2 1 1 2 2 2 1 1 1 1 1 1 1 1 1 2 2 1 1 1 1 1 1 1 0 1 1 1 1 1 1 1 2 3 3 3 4 4 5
1 1 1 1 1 1 1 2 2 1 1 1 1 1 1 1 1 1 1 1 1 1 1 1 1 1 2 2 1 1 1 1 2 1 1 1 3 3 3 3 3 4 4
1 1 1 1 1 1 1 1 1 1 0 1 1 2 1 1 1 1 1 1 1 1 1 1 1 1 1 1 1 1 1 1 1 2 3 2 3 2 3 3 3 3 4
1 1 1 1 1 1 1 1 1 1 1 1 1 1 1 0 0 1 0 0 0 0 0 1 1 2 2 2 1 1 1 1 1 2 3 4 4 3 3 3 3 3 3
Wind_Direction
151 150 137 140 138 133 132 130 127 125 125 125 123 121 118 113 108 106 102 98 95 94 94 94 91 89 86 84 82 79 77 75 75 71 69 69 67 63 60 54 49 60 58
147 151 141 141 141 137 134 133 129 127 125 127 125 123 120 115 112 109 105 101 98 97 97 95 92 90 87 85 82 80 77 74 74 70 73 79 72 65 58 51 42 51 50
135 144 148 137 138 136 134 135 133 129 128 127 127 126 123 120 115 111 107 104 100 98 97 95 93 91 89 87 85 82 77 75 74 69 78 80 77 69 63 58 55 53 50
125 138 143 131 132 133 130 134 135 133 132 129 129 127 125 122 118 114 110 106 102 99 98 96 95 93 91 89 86 84 79 77 72 60 68 66 70 70 63 57 53 49 47
117 127 124 121 122 130 131 130 133 134 134 132 129 128 125 123 120 116 112 107 103 100 99 96 97 96 95 91 88 85 80 76 69 65 67 63 66 67 59 52 48 46 44
114 115 118 112 115 120 128 127 129 130 130 130 129 127 128 124 120 116 111 107 104 101 99 96 96 96 95 93 89 87 82 74 86 71 65 60 62 61 54 52 49 46 43
104 107 118 109 107 108 115 123 124 126 129 128 127 126 126 126 122 117 112 108 106 103 101 98 95 96 97 96 93 89 82 58 60 70 63 60 57 53 49 50 45 41 38
105 109 116 106 104 104 103 106 118 120 124 127 126 122 123 126 125 120 115 111 108 105 103 103 101 98 99 97 95 91 81 43 77 72 66 63 55 48 48 47 40 34 31
104 108 111 117 115 106 99 96 97 108 113 118 121 120 118 121 125 125 119 114 112 109 107 105 104 101 101 101 98 93 81 27 56 66 61 61 48 42 44 43 37 31 23
100 97 110 112 117 126 119 97 91 95 104 108 109 108 110 117 124 124 122 113 114 112 111 110 108 105 104 105 100 94 91 231 71 73 60 59 42 38 41 35 25 18 10
96 91 97 112 113 117 121 111 104 98 94 108 112 110 125 138 138 135 115 110 113 114 115 114 111 110 111 112 103 101 163 95 81 60 55 46 35 33 32 28 20 12 5
108 96 91 107 111 106 110 122 124 119 120 120 128 136 145 138 126 128 116 107 111 112 116 112 115 129 148 130 123 162 139 92 84 75 61 43 29 26 25 20 13 5 358
129 111 93 96 116 109 106 115 111 110 113 117 125 134 143 137 130 135 137 132 132 137 131 131 144 132 126 113 129 127 90 86 70 72 67 44 27 19 15 10 5 357 353
137 121 100 96 110 110 103 102 116 112 109 118 126 139 142 134 133 133 133 137 147 148 137 145 140 126 123 121 124 117 119 106 74 58 65 44 28 19 10 4 0 353 350
137 122 101 99 106 110 105 96 109 118 118 117 133 135 136 145 144 141 138 138 152 148 147 150 150 136 136 128 129 129 125 106 86 72 81 55 30 17 7 1 357 353 354
125 137 117 125 110 113 110 103 101 107 113 110 100 111 131 137 151 155 147 146 140 146 151 165 150 148 141 136 137 140 135 114 82 67 54 73 50 23 10 4 360 357 358
96 137 144 147 111 105 105 102 82 92 101 105 105 110 113 112 127 151 149 144 137 137 148 160 147 148 130 136 148 134 117 69 45 45 40 10 34 44 20 10 4 360 357
81 79 126 99 104 92 84 93 90 99 97 94 105 106 108 107 104 112 137 137 143 150 158 158 157 152 140 149 157 154 157 126 308 353 25 22 9 6 22 17 3 359 358
86 85 83 94 101 91 82 83 85 91 91 89 89 85 91 107 114 124 110 117 152 156 153 158 164 158 147 139 141 177 205 204 306 346 17 27 16 360 355 13 1 3 0
78 87 83 88 83 87 85 77 79 83 84 80 75 65 60 90 115 131 128 110 115 156 151 157 151 132 128 132 170 199 208 225 241 333 5 17 5 2 358 355 348 359 356
89 84 84 86 80 74 81 83 83 82 83 73 60 54 57 70 100 107 103 116 117 128 150 152 146 146 115 125 182 199 182 195 259 315 330 341 359 1 353 352 347 342 336
126 95 83 86 88 74 57 74 73 90 102 89 74 62 39 49 91 106 115 122 127 132 141 152 155 178 138 157 252 232 224 201 198 271 286 311 327 339 343 344 341 343 336
150 88 84 104 90 81 83 81 84 80 99 110 83 60 37 45 61 88 120 116 122 138 145 169 189 207 188 170 197 284 261 257 283 216 274 293 318 319 327 333 331 338 337
173 111 111 93 91 89 98 109 119 129 140 147 153 121 98 89 61 51 85 109 121 127 141 166 184 214 219 209 195 272 323 344 275 271 232 276 311 310 316 322 319 325 332
138 94 88 103 95 90 109 127 144 132 68 79 120 129 116 108 75 33 98 129 137 138 128 138 186 193 223 238 227 216 221 263 275 273 275 285 290 294 304 307 306 313 321
101 79 83 128 108 137 165 151 163 162 131 110 114 137 125 105 113 30 354 230 180 116 152 178 212 212 216 232 243 238 230 223 241 261 275 284 287 292 294 292 297 307 315